[[{"header":{"parameterUnit":"m.s-1","parameterCategory":1,"la1":30.2991,"la2":30.254,"lo1":-89.0895,"lo2":-89.0444,"dy":0.0017,"dx":0.0017,"nx":28,"ny":28,"refTime":"2024-03-24T09:00:00:Z","depth":0,"parameterNumber":2,"parameterNumberName":"U-component_of_WINDS"},"data":[0,0,0,0,0,0,0,0,0,0,0,0,0,0,0,0,0,0,0,0,0,0,0,0,0,0,0,0,0,0,0,0,0,0,0,0,0,0,0,0,0,0,0,0,0,0,0,0,0,0,0,0,0,0,0,0,0,0,-3.7205,-3.7206,0,-3.7243,-3.7243,-3.7244,-3.7102,-3.7098,-3.7094,-3.709,-3.7131,-3.7136,-3.7141,0,0,0,0,0,0,0,0,0,0,0,0,0,-3.7011,-3.7015,-3.7205,-3.7206,-3.7206,-3.7243,-3.7243,-3.7244,-3.7103,-3.7098,-3.7093,-3.7088,-3.7129,-3.7135,-3.7141,0,0,0,0,0,0,0,0,0,0,0,0,0,-3.7077,-3.7017,-3.7205,-3.714,-3.7135,-3.7243,-3.7243,-3.7244,-3.7104,-3.7098,-3.7091,-3.7085,-3.7127,-3.7135,-3.7142,-3.7315,0,0,-3.7165,-3.7168,0,0,0,0,0,0,0,0,-3.7073,-3.7084,-3.7149,-3.7145,-3.7139,-3.7161,-3.719,-3.7268,-3.7106,-3.7116,-3.709,-3.7082,-3.7146,-3.7152,-3.7173,-3.7317,-3.7319,-3.7166,-3.717,-3.7173,-3.7176,0,0,0,0,0,0,0,-3.7069,-3.7082,-3.722,-3.715,-3.7144,-3.7109,-3.7111,-3.7204,-3.7166,-3.7114,-3.7104,-3.711,-3.7142,-3.7166,-3.7173,-3.7319,-3.7165,-3.7172,-3.7177,-3.718,-3.7606,-3.7612,0,0,0,0,0,0,-3.7073,-3.7079,-3.7219,-3.7221,-3.709,-3.7118,-3.712,-3.7161,-3.7165,-3.7159,-3.7116,-3.7104,-3.7156,-3.7164,-3.7174,-3.7376,-3.7173,-3.7181,-3.7185,-3.7599,-3.7607,-3.7615,0,0,0,0,0,0,-3.7069,-3.7087,-3.7217,-3.7147,-3.7161,-3.7128,-3.7174,-3.7165,-3.7188,-3.7166,-3.7158,-3.7147,-3.7151,-3.7163,-3.728,-3.7376,-3.7184,-3.7191,-3.7591,-3.7602,-3.7611,-3.7783,0,0,0,0,0,0,-3.7064,-3.7086,-3.7152,-3.715,-3.7166,-3.7324,-3.718,-3.717,-3.7201,-3.7186,-3.7193,-3.7188,-3.7147,-3.727,-3.7288,-3.7383,-3.7197,-3.7582,-3.7596,-3.7608,-3.7769,-3.7798,-3.7823,0,0,0,0,0,-3.7058,-3.72,-3.7156,-3.7174,-3.7247,-3.733,-3.7339,-3.7288,-3.721,-3.7275,-3.726,-3.7188,-3.7362,-3.7283,-3.7302,-3.7401,-3.7576,-3.7592,-3.7607,-3.7757,-3.7793,-3.7823,0,0,0,0,0,0,-3.7216,-3.7199,-3.715,-3.7295,-3.7315,-3.7306,-3.7388,-3.7328,-3.7371,-3.7355,-3.7291,-3.7294,-3.7422,-3.7423,-3.7335,-3.7567,-3.7455,-3.7475,-3.7563,-3.7597,-3.7623,-3.7621,-3.7203,0,0,0,0,0,-3.7267,-3.7336,-3.7317,-3.7447,-3.7459,-3.7422,-3.7456,-3.7415,-3.7433,-3.7441,-3.7435,-3.7456,-3.7515,-3.7555,-3.7608,-3.7767,-3.7767,-3.7844,-3.7871,-3.7893,-3.7912,-3.7995,-3.8029,-3.7665,-3.7665,-3.7664,0,0,-3.7375,-3.7374,-3.7422,-3.7479,-3.7489,-3.7562,-3.743,-3.7513,-3.7566,-3.7454,-3.7565,-3.7561,-3.7579,-3.7718,-3.7779,-3.7722,-3.8012,-3.7913,-3.7931,-3.7937,-3.8014,-3.8049,-3.808,-3.7675,-3.7673,-3.7672,0,0,-3.7609,-3.7615,-3.7723,-3.7736,-3.7752,-3.7726,-3.7752,-3.7752,-3.7744,-3.7854,-3.7771,-3.7833,-3.7936,-3.7952,-3.7974,-3.8211,-3.8146,-3.823,-3.8372,-3.8454,-3.8483,-3.8508,-3.8592,-3.8624,-3.8248,-3.8248,-3.8249,0,-3.7741,-3.7846,-3.7787,-3.7875,-3.7902,-3.7802,-3.7912,-3.7927,-3.7961,-3.7982,-3.7917,-3.8043,-3.8049,-3.819,-3.8248,-3.8268,-3.8296,-3.823,-3.8483,-3.8508,-3.853,-3.861,-3.8642,-3.8259,-3.8257,-3.8256,-3.8255,0,-3.8008,-3.8082,-3.8168,-3.8202,-3.8238,-3.8337,-3.8292,-3.8336,-3.8291,-3.8272,-3.8384,-3.8386,-3.8438,-3.8467,-3.8425,-3.8602,-3.8566,-3.8494,-3.838,-3.8576,-3.865,-3.868,-3.8273,-3.8269,-3.8266,-3.8264,0,0,-3.8346,-3.8343,-3.8375,-3.8389,-3.8398,-3.8455,-3.8548,-3.8597,-3.8636,-3.8662,-3.8738,-3.8826,-3.8758,-3.8783,-3.8741,-3.8813,-3.9,-3.8731,-3.873,-3.8781,-3.9195,-3.9251,-3.9287,-3.8956,-3.8961,-3.8966,-3.9193,0,-3.8575,-3.8734,-3.8682,-3.8843,-3.891,-3.8814,-3.8895,-3.891,-3.8894,-3.8948,-3.8929,-3.8993,-3.8898,-3.8913,-3.8979,-3.8963,-3.9082,-3.8946,-3.9027,-3.9031,-3.9027,-3.9326,-3.9385,-3.9601,-3.9222,-3.9227,-3.923,0,-3.8865,-3.8901,-3.9069,-3.9065,-3.9091,-3.9165,-3.9205,-3.9258,-3.9272,-3.9255,-3.9282,-3.9224,-3.9314,-3.9199,-3.9322,-3.9231,-3.926,-3.9257,-3.9264,-3.9271,-3.9144,-3.9342,-3.9668,-3.9701,-3.9275,-3.9272,-3.9268,0,-3.9095,-3.9185,-3.9296,-3.9311,-3.9309,-3.9363,-3.9365,-3.9373,-3.9405,-3.9439,-3.9459,-3.9504,-3.953,-3.9566,-3.9521,-3.9441,-3.9652,-3.9533,-3.964,-3.9642,-3.9691,-3.9689,-4.0027,-3.9708,-3.9708,-3.9707,-3.9706,0,-3.9358,-3.9465,-3.9399,-3.9469,-3.9584,-3.9523,-3.9639,-3.963,-3.9637,-3.9703,-3.9622,-3.9685,-3.9622,-3.9679,-3.9644,-3.9752,-3.9764,-3.9753,-3.9743,-3.9761,-3.9763,-3.9781,-3.9765,-3.9715,-3.9714,-3.9712,-3.971,0,-3.9636,-3.9596,-3.9712,-3.97,-3.9699,-3.9785,-3.9775,-3.9838,-3.9814,-3.9897,-3.9913,-3.9877,-3.994,-3.9898,-3.9962,-3.9938,-4.0079,-4.0048,-4.0075,-4.0067,-4.0177,-4.0168,-4.054,-4.0586,-4.0237,-4.024,-4.0243,0,-3.9807,-3.9886,-3.9882,-3.9919,-3.9926,-3.9988,-4.0019,-3.9961,-3.9997,-4.0017,-4.0078,-4.0133,-4.0175,-4.028,-4.0259,-4.0307,-4.0276,-4.0403,-4.0283,-4.0298,-4.0279,-4.0275,-4.0283,-4.0429,-4.0433,-4.0436,-4.0439,0,-4.0115,-4.0091,-4.0139,-4.0181,-4.0221,-4.0251,-4.0275,-4.031,-4.025,-4.0295,-4.0357,-4.039,-4.0453,-4.0509,-4.0548,-4.0549,-4.0486,-4.0476,-4.0504,-4.0524,-4.0537,-4.0532,-4.0142,-4.0469,-4.0466,-4.0463,-4.0462,-4.0461,-4.0345,-4.0411,-4.0418,-4.0474,-4.0485,-4.0508,-4.0566,-4.0549,-4.0599,-4.0646,-4.0608,-4.0683,-4.0692,-4.0738,-4.0747,-4.0804,-4.0753,-4.0793,-4.0803,-4.0814,-4.083,-4.0526,-4.0811,-4.081,-4.0809,-4.0809,-4.0808,0,-4.065,-4.0648,-4.0701,-4.0735,-4.0779,-4.0712,-4.0734,-4.0776,-4.0842,-4.0856,-4.0897,-4.0969,-4.1022,-4.1004,-4.1051,-4.1101,-4.1072,-4.1115,-4.1112,-4.1113,-4.0873,-4.0845,-4.1137,-4.1137,-4.1137,-4.1137,-4.1137,-4.1137,-4.0814,-4.0921,-4.0897,-4.1008,-4.1006,-4.1078,-4.1096,-4.1117,-4.1127,-4.121,-4.1253,-4.1241,-4.1242,-4.1288,-4.1334,-4.1327,-4.1349,-4.1403,-4.1386,-4.1163,-4.113,-4.1099,-4.1072,-4.1408,-4.1408,-4.1621,-4.1623,-4.1624]},{"header":{"parameterUnit":"m.s-1","parameterCategory":1,"la1":30.2991,"la2":30.254,"lo1":-89.0895,"lo2":-89.0444,"dy":0.0017,"dx":0.0017,"nx":28,"ny":28,"refTime":"2024-03-24T09:00:00:Z","depth":0,"parameterNumber":3,"parameterNumberName":"V-component_of_WINDS"},"data":[0,0,0,0,0,0,0,0,0,0,0,0,0,0,0,0,0,0,0,0,0,0,0,0,0,0,0,0,0,0,0,0,0,0,0,0,0,0,0,0,0,0,0,0,0,0,0,0,0,0,0,0,0,0,0,0,0,0,-3.5959,-3.5959,0,-3.6036,-3.6037,-3.6038,-3.602,-3.6018,-3.6017,-3.6015,-3.6091,-3.6095,-3.6098,0,0,0,0,0,0,0,0,0,0,0,0,0,-3.5789,-3.5793,-3.5958,-3.5959,-3.596,-3.6036,-3.6037,-3.6038,-3.602,-3.6018,-3.6016,-3.6015,-3.609,-3.6094,-3.6098,0,0,0,0,0,0,0,0,0,0,0,0,0,-3.5864,-3.5794,-3.5958,-3.596,-3.5961,-3.6036,-3.6037,-3.6038,-3.602,-3.6018,-3.6016,-3.6014,-3.6089,-3.6094,-3.6099,-3.6175,0,0,-3.6114,-3.6117,0,0,0,0,0,0,0,0,-3.586,-3.5871,-3.5959,-3.596,-3.5962,-3.6016,-3.6005,-3.6084,-3.6021,-3.5998,-3.6015,-3.6013,-3.6068,-3.6074,-3.6094,-3.6178,-3.6182,-3.6115,-3.6118,-3.612,-3.6122,0,0,0,0,0,0,0,-3.5855,-3.5867,-3.5989,-3.596,-3.5962,-3.5956,-3.5964,-3.602,-3.6044,-3.6,-3.5998,-3.6008,-3.6068,-3.6089,-3.6095,-3.6183,-3.6115,-3.6119,-3.6122,-3.6124,-3.633,-3.6333,0,0,0,0,0,0,-3.5849,-3.5863,-3.5987,-3.5991,-3.5905,-3.5961,-3.597,-3.6001,-3.6044,-3.6048,-3.601,-3.6007,-3.6081,-3.6089,-3.6098,-3.6188,-3.612,-3.6125,-3.6128,-3.6328,-3.6331,-3.6334,0,0,0,0,0,0,-3.5846,-3.5861,-3.5983,-3.5927,-3.5942,-3.5966,-3.6001,-3.6003,-3.6024,-3.6051,-3.6055,-3.6027,-3.608,-3.6091,-3.6155,-3.619,-3.6127,-3.6132,-3.6325,-3.6329,-3.6332,-3.6369,0,0,0,0,0,0,-3.5841,-3.586,-3.589,-3.5928,-3.5945,-3.6041,-3.6003,-3.6007,-3.6034,-3.603,-3.6069,-3.6073,-3.6079,-3.6148,-3.616,-3.6196,-3.6136,-3.6322,-3.6327,-3.6331,-3.6365,-3.6374,-3.6381,0,0,0,0,0,-3.5835,-3.5897,-3.5892,-3.5907,-3.5984,-3.6043,-3.6053,-3.606,-3.6037,-3.6066,-3.6083,-3.6071,-3.6185,-3.6155,-3.6169,-3.6206,-3.632,-3.6325,-3.6331,-3.6362,-3.6372,-3.6381,0,0,0,0,0,0,-3.5862,-3.5902,-3.5896,-3.5973,-3.6005,-3.604,-3.6078,-3.6071,-3.611,-3.6105,-3.6111,-3.612,-3.6185,-3.6202,-3.6168,-3.6281,-3.6249,-3.6257,-3.6267,-3.6278,-3.6285,-3.6279,-3.614,0,0,0,0,0,-3.5877,-3.5923,-3.5955,-3.6019,-3.6036,-3.6054,-3.608,-3.6083,-3.6116,-3.6129,-3.6151,-3.6182,-3.6224,-3.6252,-3.6293,-3.6368,-3.6374,-3.64,-3.6408,-3.6415,-3.6422,-3.646,-3.6472,-3.6351,-3.6351,-3.6351,0,0,-3.5908,-3.5936,-3.5964,-3.6025,-3.605,-3.6096,-3.6066,-3.6116,-3.6149,-3.6136,-3.6198,-3.6215,-3.625,-3.632,-3.6352,-3.6336,-3.6456,-3.6422,-3.6427,-3.643,-3.6467,-3.6478,-3.6488,-3.6355,-3.6354,-3.6354,0,0,-3.5988,-3.6014,-3.607,-3.6095,-3.6134,-3.6145,-3.6158,-3.6195,-3.6205,-3.6268,-3.6258,-3.6297,-3.6371,-3.6396,-3.6418,-3.6505,-3.6495,-3.6518,-3.656,-3.6597,-3.6607,-3.6615,-3.6644,-3.6655,-3.6525,-3.6525,-3.6525,0,-3.6021,-3.6091,-3.6098,-3.6149,-3.6175,-3.6166,-3.6221,-3.6245,-3.6294,-3.6312,-3.6294,-3.6385,-3.6408,-3.6482,-3.6503,-3.6522,-3.6535,-3.6513,-3.6605,-3.6613,-3.6621,-3.6649,-3.666,-3.6527,-3.6527,-3.6527,-3.6527,0,-3.6129,-3.6178,-3.6217,-3.6266,-3.6296,-3.6349,-3.6363,-3.6392,-3.6392,-3.6404,-3.6467,-3.6494,-3.6539,-3.6557,-3.6557,-3.6631,-3.662,-3.6604,-3.6571,-3.6635,-3.6661,-3.6672,-3.6531,-3.653,-3.6529,-3.6529,0,0,-3.6228,-3.6279,-3.6293,-3.6314,-3.6355,-3.6392,-3.6443,-3.6488,-3.6512,-3.6546,-3.6588,-3.6649,-3.6634,-3.6659,-3.6662,-3.6695,-3.6759,-3.6674,-3.6675,-3.6688,-3.6839,-3.685,-3.6863,-3.6753,-3.6755,-3.6757,-3.6836,0,-3.631,-3.6402,-3.6409,-3.649,-3.6534,-3.6525,-3.6569,-3.6597,-3.661,-3.6648,-3.6662,-3.6704,-3.6682,-3.6697,-3.673,-3.6745,-3.679,-3.6739,-3.679,-3.6792,-3.678,-3.6877,-3.6889,-3.6962,-3.6846,-3.6848,-3.6849,0,-3.6418,-3.6456,-3.6542,-3.6575,-3.6593,-3.6633,-3.6673,-3.671,-3.6741,-3.6748,-3.6776,-3.6773,-3.6823,-3.679,-3.6858,-3.6823,-3.6844,-3.6855,-3.6858,-3.6861,-3.6823,-3.6881,-3.6986,-3.6996,-3.6866,-3.6865,-3.6863,0,-3.6479,-3.6551,-3.6611,-3.663,-3.667,-3.6698,-3.6716,-3.6746,-3.6771,-3.6806,-3.6822,-3.6862,-3.6884,-3.6914,-3.6921,-3.6897,-3.6989,-3.6956,-3.6994,-3.6994,-3.7013,-3.7011,-3.712,-3.7029,-3.7029,-3.7029,-3.7028,0,-3.6569,-3.6622,-3.6639,-3.6676,-3.6734,-3.6741,-3.6797,-3.6813,-3.6839,-3.6877,-3.6872,-3.6907,-3.6916,-3.6952,-3.6959,-3.7013,-3.7023,-3.7028,-3.7029,-3.7028,-3.7027,-3.7041,-3.7035,-3.7031,-3.7031,-3.703,-3.703,0,-3.6647,-3.6661,-3.6726,-3.6759,-3.6768,-3.6809,-3.6836,-3.687,-3.6882,-3.6931,-3.6942,-3.696,-3.7003,-3.7014,-3.7065,-3.7069,-3.7132,-3.7129,-3.7122,-3.7121,-3.7157,-3.7153,-3.7278,-3.7293,-3.7193,-3.7194,-3.7195,0,-3.6703,-3.6743,-3.678,-3.6806,-3.6825,-3.6867,-3.6893,-3.69,-3.6927,-3.6965,-3.6994,-3.7037,-3.7071,-3.7139,-3.7156,-3.7194,-3.7191,-3.7232,-3.7196,-3.7193,-3.7189,-3.7186,-3.7189,-3.7238,-3.7239,-3.724,-3.7241,0,-3.68,-3.6804,-3.6843,-3.6884,-3.6915,-3.6947,-3.6978,-3.6998,-3.701,-3.704,-3.7084,-3.7111,-3.7163,-3.7204,-3.7242,-3.7259,-3.7251,-3.7252,-3.7262,-3.7261,-3.7254,-3.7256,-3.7138,-3.7249,-3.7248,-3.7247,-3.7247,-3.7247,-3.6867,-3.6901,-3.6932,-3.6975,-3.6999,-3.7027,-3.706,-3.7076,-3.7113,-3.7157,-3.7158,-3.7206,-3.7234,-3.7285,-3.7303,-3.7339,-3.7326,-3.7342,-3.7346,-3.7349,-3.7351,-3.725,-3.7346,-3.7346,-3.7346,-3.7346,-3.7346,0,-3.6962,-3.6981,-3.702,-3.7063,-3.7096,-3.7087,-3.712,-3.7147,-3.7189,-3.7217,-3.725,-3.73,-3.7339,-3.7359,-3.7397,-3.7422,-3.7419,-3.7432,-3.7429,-3.7433,-3.7361,-3.7348,-3.7433,-3.7433,-3.7433,-3.7433,-3.7433,-3.7433,-3.7015,-3.7072,-3.708,-3.7148,-3.7166,-3.7213,-3.7232,-3.7257,-3.7279,-3.7335,-3.7368,-3.7381,-3.7404,-3.7444,-3.748,-3.7484,-3.7498,-3.7512,-3.7514,-3.7447,-3.7438,-3.7429,-3.7416,-3.7515,-3.7515,-3.7582,-3.7583,-3.7583]}]]